[[{"header":{"parameterUnit":"m.s-1","parameterCategory":1,"la1":30.2991,"la2":30.254,"lo1":-89.0895,"lo2":-89.0444,"dy":0.0017,"dx":0.0017,"nx":28,"ny":28,"refTime":"2024-06-21T21:00:00:Z","depth":0,"parameterNumber":2,"parameterNumberName":"U-component_of_WINDS"},"data":[0,0,0,0,0,0,0,0,0,0,0,0,0,0,0,0,0,0,0,0,0,0,0,0,0,0,0,0,0,0,0,0,0,0,0,0,0,0,0,0,0,0,0,0,0,0,0,0,0,0,0,0,0,0,0,0,0,0,0.1687,0.1687,0,0.1695,0.1695,0.1695,0.1722,0.1723,0.1724,0.1724,0.173,0.1729,0.1729,0,0,0,0,0,0,0,0,0,0,0,0,0,0.1697,0.1696,0.1687,0.1687,0.1688,0.1694,0.1695,0.1695,0.1722,0.1723,0.1724,0.1725,0.173,0.1729,0.1729,0,0,0,0,0,0,0,0,0,0,0,0,0,0.1697,0.1696,0.1687,0.1702,0.1704,0.1694,0.1695,0.1695,0.1722,0.1723,0.1724,0.1725,0.173,0.173,0.1729,0.1705,0,0,0.1727,0.1727,0,0,0,0,0,0,0,0,0.1697,0.1697,0.17,0.1701,0.1703,0.1709,0.17,0.1698,0.1722,0.1715,0.1724,0.1725,0.1722,0.1722,0.1721,0.1706,0.1706,0.1727,0.1726,0.1726,0.1726,0,0,0,0,0,0,0,0.1697,0.1696,0.169,0.17,0.1702,0.1708,0.1709,0.17,0.1713,0.1716,0.1718,0.1718,0.1723,0.1722,0.1721,0.1706,0.1727,0.1726,0.1726,0.1725,0.1672,0.1671,0,0,0,0,0,0,0.1695,0.1696,0.169,0.169,0.1702,0.1707,0.1708,0.1706,0.1713,0.1715,0.1717,0.172,0.1722,0.1722,0.1722,0.1694,0.1726,0.1725,0.1725,0.1673,0.1671,0.167,0,0,0,0,0,0,0.1695,0.1694,0.169,0.1694,0.1694,0.1706,0.1703,0.1705,0.1704,0.1714,0.1717,0.1714,0.1723,0.1723,0.1709,0.1695,0.1725,0.1724,0.1674,0.1672,0.1671,0.1639,0,0,0,0,0,0,0.1695,0.1694,0.1685,0.1694,0.1694,0.1677,0.1702,0.1705,0.1703,0.1706,0.1712,0.1714,0.1724,0.171,0.1709,0.1694,0.1724,0.1675,0.1673,0.1671,0.1641,0.1637,0.1633,0,0,0,0,0,0.1695,0.1676,0.1685,0.1684,0.1683,0.1676,0.1676,0.1689,0.1702,0.1693,0.17,0.1713,0.1697,0.1709,0.1707,0.1692,0.1676,0.1674,0.1671,0.1643,0.1638,0.1633,0,0,0,0,0,0,0.1665,0.1677,0.1687,0.167,0.1672,0.1681,0.167,0.1682,0.168,0.1683,0.1699,0.17,0.1684,0.1687,0.17,0.167,0.1689,0.1686,0.1668,0.1663,0.1658,0.1657,0.1723,0,0,0,0,0,0.1656,0.165,0.1661,0.1645,0.1645,0.1658,0.1655,0.1665,0.1668,0.1668,0.1674,0.1676,0.1671,0.1667,0.1664,0.1643,0.1644,0.1632,0.1628,0.1624,0.1621,0.1609,0.1604,0.1663,0.1663,0.1663,0,0,0.1638,0.1644,0.1639,0.1639,0.1641,0.1634,0.1658,0.165,0.1644,0.1667,0.1654,0.1659,0.1662,0.1644,0.1637,0.1647,0.1605,0.1621,0.1618,0.1617,0.1606,0.1601,0.1596,0.1661,0.1661,0.1662,0,0,0.16,0.1605,0.1591,0.1594,0.1598,0.1607,0.1604,0.1611,0.1615,0.1603,0.162,0.1614,0.1606,0.1607,0.1606,0.1571,0.1583,0.1569,0.1545,0.1534,0.1529,0.1525,0.1511,0.1506,0.1567,0.1566,0.1566,0,0.1576,0.1567,0.1583,0.1573,0.1572,0.1594,0.158,0.1582,0.1584,0.1583,0.1594,0.1584,0.1588,0.157,0.1562,0.1561,0.1557,0.1568,0.1529,0.1525,0.1521,0.1508,0.1503,0.1565,0.1565,0.1565,0.1565,0,0.1537,0.153,0.1519,0.1521,0.152,0.1508,0.1521,0.1518,0.1528,0.1535,0.1523,0.1528,0.1526,0.1523,0.1533,0.1507,0.1513,0.1526,0.1545,0.1514,0.1502,0.1497,0.1562,0.1563,0.1563,0.1564,0,0,0.1478,0.1491,0.1486,0.1488,0.1495,0.1489,0.1479,0.1477,0.1473,0.1475,0.1466,0.1459,0.1471,0.1471,0.1481,0.1472,0.1442,0.1486,0.1487,0.1477,0.1413,0.1401,0.1395,0.1451,0.145,0.1449,0.1412,0,0.1442,0.1424,0.1439,0.1418,0.1412,0.1433,0.1424,0.1427,0.1434,0.1429,0.1437,0.1431,0.1449,0.1449,0.144,0.1447,0.1429,0.145,0.1441,0.1441,0.1438,0.1389,0.1377,0.1341,0.1408,0.1407,0.1406,0,0.1396,0.1396,0.1375,0.1384,0.1382,0.1373,0.1373,0.1368,0.1372,0.1378,0.1378,0.1391,0.1381,0.1401,0.1387,0.1401,0.1399,0.1402,0.1401,0.1399,0.142,0.1384,0.1331,0.1324,0.1399,0.14,0.1401,0,0.1353,0.1348,0.1335,0.1336,0.1346,0.1339,0.1343,0.1349,0.1347,0.1346,0.1345,0.1344,0.1342,0.1341,0.1353,0.1367,0.1337,0.1358,0.1341,0.134,0.1331,0.1331,0.1275,0.1333,0.1333,0.1333,0.1333,0,0.1309,0.1295,0.1316,0.1308,0.1293,0.131,0.1295,0.1301,0.1305,0.1298,0.1317,0.131,0.1327,0.1322,0.1332,0.1318,0.1318,0.1321,0.1324,0.1319,0.1318,0.1316,0.1318,0.1332,0.1332,0.1332,0.1333,0,0.1258,0.1272,0.1258,0.127,0.1272,0.1261,0.127,0.1263,0.1272,0.1262,0.1261,0.1275,0.1269,0.1282,0.1279,0.1286,0.1265,0.1273,0.1264,0.1265,0.1246,0.1247,0.1184,0.1176,0.1241,0.1241,0.124,0,0.1228,0.1218,0.1229,0.1225,0.1228,0.1223,0.1222,0.1239,0.1236,0.1241,0.1232,0.1229,0.1227,0.1217,0.1227,0.1224,0.123,0.1209,0.123,0.1225,0.1228,0.1228,0.1226,0.1203,0.1203,0.1202,0.1201,0,0.1173,0.1181,0.1178,0.1178,0.1175,0.1176,0.1178,0.1174,0.1192,0.1189,0.1184,0.1182,0.1179,0.1175,0.1175,0.1178,0.1192,0.1195,0.1191,0.1184,0.1179,0.118,0.125,0.1196,0.1196,0.1197,0.1197,0.1197,0.113,0.1122,0.1128,0.1125,0.1128,0.113,0.1123,0.1132,0.1128,0.1127,0.1138,0.1131,0.1136,0.1137,0.1139,0.1134,0.1143,0.1137,0.1135,0.1133,0.1129,0.1181,0.1134,0.1134,0.1134,0.1134,0.1134,0,0.1075,0.108,0.1077,0.1079,0.1076,0.1092,0.1095,0.1091,0.1085,0.1088,0.1086,0.1081,0.1077,0.1087,0.1085,0.1078,0.1084,0.1077,0.1076,0.1077,0.1121,0.1124,0.1072,0.1072,0.1072,0.1072,0.1072,0.1072,0.1045,0.1032,0.1041,0.1029,0.1035,0.1028,0.1029,0.103,0.1033,0.1026,0.1024,0.103,0.1036,0.1035,0.1032,0.1035,0.1033,0.1022,0.1027,0.1068,0.1074,0.1079,0.1083,0.1022,0.1022,0.0983,0.0983,0.0983]},{"header":{"parameterUnit":"m.s-1","parameterCategory":1,"la1":30.2991,"la2":30.254,"lo1":-89.0895,"lo2":-89.0444,"dy":0.0017,"dx":0.0017,"nx":28,"ny":28,"refTime":"2024-06-21T21:00:00:Z","depth":0,"parameterNumber":3,"parameterNumberName":"V-component_of_WINDS"},"data":[0,0,0,0,0,0,0,0,0,0,0,0,0,0,0,0,0,0,0,0,0,0,0,0,0,0,0,0,0,0,0,0,0,0,0,0,0,0,0,0,0,0,0,0,0,0,0,0,0,0,0,0,0,0,0,0,0,0,-1.0586,-1.0586,0,-1.061,-1.061,-1.061,-1.0642,-1.0643,-1.0643,-1.0644,-1.0667,-1.0667,-1.0667,0,0,0,0,0,0,0,0,0,0,0,0,0,-1.0568,-1.0568,-1.0586,-1.0586,-1.0587,-1.061,-1.061,-1.061,-1.0642,-1.0643,-1.0643,-1.0644,-1.0667,-1.0667,-1.0667,0,0,0,0,0,0,0,0,0,0,0,0,0,-1.0582,-1.0568,-1.0586,-1.0605,-1.0607,-1.061,-1.061,-1.061,-1.0642,-1.0643,-1.0644,-1.0644,-1.0667,-1.0667,-1.0667,-1.0652,0,0,-1.0668,-1.0668,0,0,0,0,0,0,0,0,-1.0581,-1.0583,-1.0602,-1.0604,-1.0606,-1.0624,-1.0612,-1.0624,-1.0642,-1.0629,-1.0644,-1.0645,-1.0652,-1.0653,-1.0656,-1.0653,-1.0654,-1.0668,-1.0668,-1.0668,-1.0668,0,0,0,0,0,0,0,-1.058,-1.0582,-1.0595,-1.0603,-1.0605,-1.0613,-1.0616,-1.0615,-1.0635,-1.063,-1.0632,-1.0635,-1.0653,-1.0656,-1.0657,-1.0654,-1.0668,-1.0668,-1.0668,-1.0668,-1.064,-1.0639,0,0,0,0,0,0,-1.0577,-1.0581,-1.0595,-1.0596,-1.0596,-1.0612,-1.0616,-1.0617,-1.0636,-1.0639,-1.0634,-1.0636,-1.0655,-1.0656,-1.0658,-1.0641,-1.0668,-1.0668,-1.0668,-1.0641,-1.064,-1.0639,0,0,0,0,0,0,-1.0576,-1.0578,-1.0594,-1.0589,-1.0592,-1.0612,-1.0614,-1.0617,-1.062,-1.0639,-1.0642,-1.0633,-1.0656,-1.0657,-1.0653,-1.0642,-1.0668,-1.0668,-1.0642,-1.0641,-1.064,-1.0607,0,0,0,0,0,0,-1.0576,-1.0577,-1.0572,-1.0589,-1.0592,-1.0589,-1.0613,-1.0617,-1.062,-1.0623,-1.0638,-1.0642,-1.0656,-1.0653,-1.0653,-1.0643,-1.0668,-1.0643,-1.0641,-1.064,-1.0609,-1.0605,-1.0601,0,0,0,0,0,-1.0575,-1.0561,-1.0571,-1.0573,-1.0586,-1.0588,-1.059,-1.0607,-1.0619,-1.0614,-1.0626,-1.0641,-1.0643,-1.0652,-1.0653,-1.0642,-1.0644,-1.0642,-1.064,-1.0611,-1.0606,-1.0601,0,0,0,0,0,0,-1.0542,-1.0564,-1.0575,-1.0567,-1.0576,-1.0594,-1.0587,-1.0601,-1.0606,-1.0609,-1.063,-1.0633,-1.0626,-1.0634,-1.0643,-1.0629,-1.0646,-1.0644,-1.0623,-1.0619,-1.0615,-1.0612,-1.0668,0,0,0,0,0,-1.0534,-1.0534,-1.0553,-1.0544,-1.0548,-1.0567,-1.0569,-1.0581,-1.0591,-1.0595,-1.0606,-1.0615,-1.0618,-1.0619,-1.0622,-1.0611,-1.0614,-1.0604,-1.06,-1.0597,-1.0594,-1.0589,-1.0584,-1.0633,-1.0633,-1.0633,0,0,-1.0516,-1.0529,-1.0528,-1.0538,-1.0546,-1.0546,-1.057,-1.0568,-1.0568,-1.0594,-1.0591,-1.06,-1.0611,-1.0603,-1.06,-1.0609,-1.0582,-1.0594,-1.0591,-1.0591,-1.0586,-1.0582,-1.0578,-1.0632,-1.0632,-1.0632,0,0,-1.0485,-1.0495,-1.0488,-1.0496,-1.0508,-1.0521,-1.0519,-1.0536,-1.0543,-1.054,-1.0559,-1.056,-1.0564,-1.0571,-1.0575,-1.0547,-1.0561,-1.0548,-1.0526,-1.052,-1.0516,-1.0513,-1.0502,-1.0498,-1.0546,-1.0545,-1.0545,0,-1.0462,-1.0463,-1.0483,-1.048,-1.0484,-1.0509,-1.0502,-1.0508,-1.0521,-1.0523,-1.0533,-1.0539,-1.0548,-1.0542,-1.0535,-1.0538,-1.0537,-1.0545,-1.0515,-1.0512,-1.0509,-1.05,-1.0496,-1.0544,-1.0544,-1.0544,-1.0544,0,-1.0434,-1.0434,-1.0427,-1.0439,-1.0442,-1.0438,-1.0457,-1.0458,-1.047,-1.0482,-1.0479,-1.0491,-1.0497,-1.0497,-1.0509,-1.0493,-1.0498,-1.0512,-1.0529,-1.0503,-1.0494,-1.049,-1.0541,-1.0542,-1.0542,-1.0543,0,0,-1.038,-1.0404,-1.0401,-1.0407,-1.0423,-1.0423,-1.042,-1.0427,-1.0427,-1.0435,-1.0432,-1.0436,-1.0449,-1.0453,-1.0467,-1.0462,-1.0438,-1.0476,-1.0477,-1.0468,-1.042,-1.0409,-1.0405,-1.0449,-1.0448,-1.0448,-1.0419,0,-1.0351,-1.0347,-1.0365,-1.0356,-1.0356,-1.038,-1.0377,-1.0386,-1.0397,-1.0399,-1.0412,-1.0413,-1.0431,-1.0433,-1.043,-1.0442,-1.0429,-1.0445,-1.0446,-1.0445,-1.0441,-1.04,-1.0388,-1.0361,-1.0416,-1.0415,-1.0415,0,-1.0316,-1.0323,-1.0314,-1.0331,-1.0331,-1.0328,-1.0336,-1.0338,-1.0349,-1.0357,-1.0363,-1.0379,-1.0376,-1.0394,-1.0391,-1.0401,-1.0403,-1.0409,-1.0409,-1.0409,-1.0428,-1.0398,-1.0353,-1.0348,-1.041,-1.041,-1.0411,0,-1.0278,-1.0285,-1.028,-1.0284,-1.0304,-1.0301,-1.0309,-1.0321,-1.0324,-1.0331,-1.0333,-1.0339,-1.0342,-1.0347,-1.0364,-1.0375,-1.0359,-1.0378,-1.0365,-1.0364,-1.0359,-1.0359,-1.0313,-1.0362,-1.0362,-1.0362,-1.0362,0,-1.0242,-1.0236,-1.0263,-1.026,-1.0253,-1.0274,-1.0267,-1.0277,-1.0288,-1.0287,-1.0309,-1.0307,-1.0331,-1.0332,-1.0346,-1.0341,-1.0342,-1.0349,-1.0352,-1.0346,-1.0345,-1.0347,-1.0348,-1.0361,-1.0361,-1.0362,-1.0362,0,-1.0197,-1.0215,-1.0212,-1.0231,-1.0236,-1.023,-1.0246,-1.0244,-1.0257,-1.0256,-1.0257,-1.0277,-1.0279,-1.0297,-1.0304,-1.0313,-1.0303,-1.0311,-1.0299,-1.0301,-1.0287,-1.0288,-1.0239,-1.0234,-1.0287,-1.0287,-1.0286,0,-1.0173,-1.0169,-1.0187,-1.0189,-1.0196,-1.0198,-1.0201,-1.0222,-1.0224,-1.0237,-1.0233,-1.0238,-1.0243,-1.0246,-1.0261,-1.0267,-1.0274,-1.0257,-1.0275,-1.0269,-1.0273,-1.0272,-1.0272,-1.0252,-1.0252,-1.0251,-1.0251,0,-1.0128,-1.0137,-1.0141,-1.0149,-1.0152,-1.0159,-1.0166,-1.0166,-1.019,-1.0191,-1.0195,-1.0198,-1.0206,-1.021,-1.0218,-1.0226,-1.0242,-1.0245,-1.0242,-1.0235,-1.0228,-1.0231,-1.0288,-1.0246,-1.0246,-1.0246,-1.0247,-1.0247,-1.0092,-1.0089,-1.0102,-1.0106,-1.0114,-1.0121,-1.012,-1.0133,-1.0137,-1.0144,-1.0157,-1.0158,-1.017,-1.0183,-1.019,-1.0191,-1.02,-1.0196,-1.0195,-1.0193,-1.019,-1.0229,-1.0193,-1.0193,-1.0193,-1.0193,-1.0193,0,-1.0047,-1.0057,-1.0061,-1.0071,-1.0074,-1.009,-1.0099,-1.0101,-1.0102,-1.0112,-1.0116,-1.012,-1.0125,-1.014,-1.0146,-1.0144,-1.0152,-1.0145,-1.0145,-1.0146,-1.0182,-1.0183,-1.0139,-1.0139,-1.0139,-1.0139,-1.0139,-1.0139,-1.0024,-1.002,-1.0031,-1.0031,-1.0041,-1.0043,-1.0047,-1.0054,-1.0062,-1.0065,-1.0069,-1.0079,-1.0092,-1.0099,-1.0103,-1.0108,-1.0109,-1.0099,-1.0106,-1.0139,-1.0144,-1.0149,-1.015,-1.01,-1.01,-1.0071,-1.007,-1.007]}]]